Starlink 31171

operational
NORAD ID: 58834 Int'l Des: 2024-017 Owner: SPXS Country: US Constellation: starlink
LEOCIRCULAR

Starlink 31171について

説明を読み込み中...

リアルタイム位置

3D地球を読み込み中...

次回通過

高度履歴

Altitude vs Time

uPlot chart will show altitude changes over time

軌道要素

1 58834U 24017J 25350.88086233 .00000901 00000-0 42539-4 0 9992
2 58834 53.1594 205.4051 0001387 79.6230 280.4927 15.30197971107700
Epoch: Dec 16, 2025 • Age: 14 hours

現在のステータス

高度 493.9 km
速度 7.62 km/s
衛星直下点 -51.50°S, 116.77°W
打ち上げ日 Jan 24, 2024
運用期間 1.8 years
タイプ internet

技術仕様

分類 Payload
質量 730.00 kg
乾燥質量 700.00 kg
総質量 730.00 kg
長さ 0.30 m
直径 4.10 m
スパン 29.00 m
形状 Box + pan
製造者 SPXS
バスタイプ Starlink V2M
フェーズステータス In Orbit
所有者/国 SPXS/US

大規模コンステレーション

Loading constellations...